Overview Statistics Trail Chart Weather Telemetry Raw packets
 

This is the latest recevied weather packets stored in our database for station/object K5FEP. If no packets are shown the sender has not sent any weather packets the latest 10 day(s).

<< 94 95 96 97 98 99 100 >>
Time Temp. Humidity Pressure Rain* Wind** Luminosity Snow
1787937619 32.22° C 47% 1016 hPa 0 mm - 934 W/m² -
1787937315 32.22° C 48% 1016.1 hPa 0 mm - 930 W/m² -
1787937010 32.78° C 47% 1016.1 hPa 0 mm - 927 W/m² -
1787936709 32.78° C 46% 1016.3 hPa 0 mm - 667 W/m² -
1787936409 32.22° C 48% 1016.2 hPa 0 mm - 941 W/m² -
1787936104 32.22° C 49% 1016.3 hPa 0 mm - 971 W/m² -
1787935799 31.67° C 50% 1016.4 hPa 0 mm - 909 W/m² -
1787935495 31.11° C 52% 1016.3 hPa 0 mm - 916 W/m² -
1787935191 31.11° C 51% 1016.4 hPa 0 mm - 925 W/m² -
1787934886 30.56° C 51% 1016.4 hPa 0 mm - 947 W/m² -
1787934586 30.56° C 50% 1016.5 hPa 0 mm - 940 W/m² -
1787934286 31.11° C 49% 1016.6 hPa 0 mm - 907 W/m² -
1787933985 31.11° C 50% 1016.5 hPa 0 mm - 878 W/m² -
1787933684 30.56° C 51% 1016.6 hPa 0 mm - 876 W/m² -
1787933379 30.56° C 53% 1016.6 hPa 0 mm - 872 W/m² -
1787933074 30.56° C 51% 1016.7 hPa 0 mm - 863 W/m² -
1787932773 30.56° C 52% 1016.6 hPa 0 mm - 860 W/m² -
1787932473 30.56° C 51% 1016.7 hPa 0 mm - 853 W/m² -
1787932169 30.56° C 52% 1016.7 hPa 0 mm - 839 W/m² -
1787931867 30.56° C 52% 1016.7 hPa 0 mm - 835 W/m² -
1787931562 30.56° C 52% 1016.8 hPa 0 mm - 826 W/m² -
1787931257 30.56° C 53% 1016.9 hPa 0 mm - 816 W/m² -
1787930956 30° C 54% 1016.8 hPa 0 mm - 805 W/m² -
1787930655 30° C 55% 1016.7 hPa 0 mm - 794 W/m² -
1787930350 30° C 55% 1016.7 hPa 0 mm - 778 W/m² -

* Rain latest hour (hover to see other rain measurements)
** Current wind speed in m/s (hover to see current wind gust speed)